EHI
3 3 2 3 2 3 2 1 0 1 1 1 0 0 0 0 0 0 0 0 0 0 0 0 0 0 0 0 0 0 0 0 0 0 0 0 0 0
3 3 4 4 3 3 3 1 1 2 2 1 0 0 0 0 0 0 0 0 0 0 0 0 0 0 0 0 0 0 0 0 0 0 0 0 0 0
3 4 4 4 3 3 2 2 2 2 2 1 0 0 0 0 0 0 0 0 0 0 0 0 0 0 0 0 0 0 0 0 0 0 0 0 0 0
3 3 4 3 3 2 2 2 2 2 1 0 0 0 0 0 0 0 0 0 0 0 0 0 0 0 0 0 0 0 0 0 0 0 0 0 0 0
3 3 3 3 3 3 2 2 1 1 1 0 0 0 0 0 0 0 0 0 0 0 0 0 0 0 0 0 0 0 0 0 0 0 0 0 0 0
3 3 3 3 3 3 3 2 1 1 1 0 0 0 0 0 0 0 0 0 0 0 0 0 0 0 0 0 0 0 0 0 0 0 0 0 0 0
3 3 3 3 3 3 2 2 2 2 1 0 0 0 0 0 0 0 0 0 0 0 0 0 0 0 0 0 0 0 0 0 0 0 0 0 0 0
3 3 3 3 3 2 1 1 1 1 1 0 0 0 0 0 0 0 0 0 0 0 0 0 0 0 0 0 0 0 0 0 0 0 0 0 0 0
4 4 4 4 3 2 1 0 0 0 1 1 0 0 0 0 0 0 0 0 0 0 0 0 0 0 0 0 0 0 0 0 0 0 0 0 0 0
4 5 5 5 4 3 2 1 0 0 0 0 0 0 0 0 0 0 0 0 0 0 1 1 0 0 0 0 0 0 0 0 0 0 0 0 0 0
4 4 5 4 3 2 2 2 1 1 0 0 0 0 0 0 0 0 0 0 0 0 1 1 0 0 0 0 0 0 0 0 0 0 0 0 0 0
3 3 2 2 1 1 2 3 2 2 1 0 0 0 0 1 1 0 0 0 1 1 0 0 0 0 0 0 0 0 0 0 0 0 0 0 0 0
3 3 2 0 0 0 1 2 2 1 1 0 0 0 0 1 2 1 1 1 2 1 0 0 0 0 0 0 0 0 0 0 0 0 0 0 0 0
2 2 1 0 0 0 0 1 1 0 0 0 0 0 0 2 3 3 2 3 3 2 0 0 0 0 0 0 0 0 0 0 0 1 1 0 0 0
1 1 0 0 0 0 0 0 0 0 0 0 0 0 0 1 2 2 2 2 2 1 0 0 0 0 0 0 0 0 0 0 1 2 2 1 0 0
0 0 0 0 0 0 0 0 0 0 0 0 0 0 0 1 1 1 1 1 1 1 0 0 0 0 0 0 0 0 0 0 1 2 2 1 1 0
0 0 0 0 0 0 0 0 0 0 0 0 0 0 0 0 0 0 0 0 0 0 0 0 0 0 0 0 0 0 0 0 0 0 0 1 1 1
0 0 0 0 0 0 0 0 0 0 0 0 0 0 0 0 0 0 0 0 0 0 0 0 0 0 0 0 0 0 0 0 0 0 0 0 0 0
0 0 0 0 0 0 0 0 0 0 1 0 0 0 0 0 0 0 0 0 0 0 0 0 0 0 0 0 0 0 0 0 0 0 0 0 0 0
0 0 0 0 0 0 0 0 0 0 0 0 0 0 0 0 0 0 0 0 0 0 0 0 0 0 0 0 0 0 0 0 0 0 0 0 0 0
0 0 0 0 0 0 0 0 0 0 0 0 0 0 0 0 0 0 0 0 0 0 0 0 0 0 0 0 0 0 0 0 0 0 0 0 0 0
0 0 0 0 0 0 0 0 0 0 0 0 0 0 0 0 0 0 0 0 0 0 0 0 0 0 0 0 0 0 0 0 0 0 0 0 0 0
0 0 0 0 0 0 0 0 0 0 0 0 0 0 0 0 0 0 0 0 0 0 0 0 0 0 0 0 0 0 0 0 0 0 0 0 0 0
Wind_Speed
3 3 4 3 3 3 3 4 4 4 4 3 3 2 2 2 1 3 3 2 4 4 5 6 7 7 7 8 8 8 9 9 9 10 10 11 11 11
2 2 3 3 2 3 3 4 4 5 4 2 2 2 2 3 2 4 3 3 4 5 6 6 6 6 6 7 7 8 8 8 9 9 9 10 10 11
2 3 3 4 3 3 3 3 4 4 4 3 2 2 2 4 2 4 4 5 4 7 7 6 6 7 7 7 7 7 7 8 8 9 9 9 9 9
3 3 3 2 3 4 3 4 4 3 4 4 3 3 3 4 4 5 5 4 4 5 7 7 7 7 8 8 8 8 7 7 8 8 8 8 8 9
3 3 3 3 3 3 4 4 3 3 4 4 4 3 3 3 4 5 5 4 6 4 7 9 8 8 9 9 9 9 8 8 8 8 8 8 8 8
3 3 3 3 3 4 4 4 4 4 4 5 4 4 4 4 4 5 5 4 5 5 5 5 7 10 11 10 10 10 10 10 9 9 9 9 8 8
3 3 3 2 3 4 4 4 4 4 4 4 4 4 4 3 4 5 5 5 5 5 5 5 5 6 7 10 11 10 10 10 10 10 10 9 9 9
4 4 3 3 2 3 3 4 5 5 5 5 5 4 5 5 4 5 5 5 5 3 5 5 5 5 4 5 6 9 11 10 11 11 11 11 10 10
4 4 4 2 3 3 4 6 6 6 6 6 7 6 6 5 5 6 5 6 6 5 5 6 5 5 4 3 5 8 9 10 10 10 10 11 11 10
4 4 4 4 3 4 5 5 5 4 5 6 6 7 6 5 6 7 7 7 7 6 5 6 5 5 5 3 6 9 9 10 10 10 10 10 10 10
4 4 4 4 2 3 6 6 5 5 5 6 6 6 5 5 6 6 6 6 6 5 4 5 5 5 5 5 4 9 10 10 10 10 10 10 10 10
4 4 3 4 2 3 6 6 6 5 5 4 5 6 7 7 8 8 7 6 6 5 3 4 5 5 5 4 3 4 6 9 12 12 12 11 10 8
4 3 1 3 3 5 7 6 6 7 7 6 5 5 5 4 5 6 6 6 6 6 4 4 5 5 5 5 4 4 4 5 6 8 11 12 11 10
5 4 1 2 4 6 6 5 6 7 6 5 5 5 4 4 4 4 5 6 6 7 6 6 6 5 6 6 5 4 4 4 4 4 4 8 11 13
5 3 4 5 6 7 8 8 7 6 5 5 5 5 4 4 4 4 5 6 7 7 6 7 7 6 6 6 6 5 4 4 4 4 4 5 5 6
7 6 9 10 9 8 6 7 6 5 5 6 5 4 4 4 4 4 4 4 5 5 5 6 6 7 6 6 6 6 5 5 4 4 5 5 5 5
6 6 6 4 5 5 4 4 4 5 5 6 5 5 4 4 4 4 4 4 5 5 4 3 4 5 7 6 6 6 5 5 5 4 4 5 5 5
6 6 5 5 5 5 4 4 4 4 5 5 5 4 4 4 4 4 4 4 5 4 4 3 3 4 4 4 5 6 5 5 4 5 6 6 5 4
7 6 5 4 4 5 4 4 4 4 3 4 5 4 5 5 5 4 4 4 5 4 4 4 4 5 5 5 3 4 5 5 4 5 5 5 5 5
6 5 4 4 4 4 4 4 4 4 3 3 4 4 4 4 5 5 4 5 5 5 5 5 4 5 5 5 5 4 5 6 5 5 5 4 4 3
4 4 4 4 4 4 4 4 4 4 3 3 4 4 4 4 5 5 5 4 6 5 5 5 4 4 5 5 5 5 4 5 5 5 5 5 5 5
4 4 4 4 4 4 4 4 4 4 4 4 4 4 4 4 5 6 5 5 5 5 5 5 4 4 5 5 6 6 5 4 4 6 6 6 5 5
4 4 4 4 4 4 4 4 5 4 4 4 4 4 4 4 5 5 5 6 5 5 5 5 4 4 5 5 6 5 6 5 4 4 4 5 7 7
Wind_Direction
241 235 248 253 259 264 264 267 268 268 260 239 239 224 234 241 194 243 247 172 194 216 230 239 243 243 244 242 241 237 233 229 228 229 232 232 233 233
259 270 267 259 260 260 259 259 263 268 272 273 249 238 239 251 200 250 253 182 201 212 223 233 238 239 241 241 240 236 229 224 224 224 227 231 233 233
266 259 263 275 273 269 261 259 259 263 268 277 281 272 245 268 248 253 248 244 221 199 210 224 231 236 238 240 240 236 228 224 223 223 227 229 231 232
271 272 273 268 265 270 269 261 262 268 267 267 269 265 249 249 253 256 256 249 252 188 200 218 228 234 236 237 237 234 229 223 220 218 220 223 227 232
277 276 281 278 270 269 271 270 261 251 257 260 259 262 257 251 254 251 256 263 264 218 203 209 218 228 233 233 233 231 229 227 222 218 218 221 223 225
280 276 281 282 281 282 272 272 275 272 256 258 258 254 250 243 250 256 253 248 260 263 254 236 218 217 225 228 229 227 224 223 223 221 220 220 221 221
285 277 274 305 333 309 300 294 278 270 266 264 263 263 260 258 254 256 260 262 257 263 268 259 239 234 221 218 220 220 217 217 219 220 221 222 224 224
285 283 266 232 234 231 266 287 290 276 277 276 271 271 270 269 272 271 271 271 272 264 268 269 265 262 255 246 205 197 205 212 216 217 220 220 223 226
290 289 286 300 271 278 237 227 240 243 253 269 275 277 274 273 274 270 269 276 284 289 281 276 271 269 264 250 180 190 199 204 210 214 216 217 218 223
273 277 283 291 300 300 288 277 269 251 240 246 266 275 279 283 267 265 272 268 267 261 256 270 276 276 277 266 187 189 199 205 208 212 214 216 217 220
258 262 272 277 322 296 275 276 277 269 234 231 251 265 284 283 280 272 267 264 269 272 253 260 273 277 276 269 211 186 194 201 206 209 212 215 217 219
245 235 219 262 285 274 271 274 277 283 287 262 240 237 243 240 231 248 264 268 274 276 270 263 268 272 272 261 258 210 204 203 205 209 211 214 213 223
273 264 220 177 239 253 263 273 286 287 278 269 260 254 246 243 233 230 246 261 271 273 279 269 269 268 270 276 275 265 250 238 216 211 209 209 206 215
282 293 342 173 242 253 256 269 276 273 268 271 271 270 268 263 255 251 247 252 260 271 284 283 276 273 271 272 276 275 270 259 249 239 229 195 200 210
281 296 286 261 252 241 233 243 251 255 264 265 266 269 272 270 265 256 246 243 246 249 255 261 266 271 269 271 275 277 278 277 264 253 243 232 224 215
260 250 230 234 241 254 247 229 239 255 265 269 275 277 277 272 266 263 264 261 259 255 239 242 251 261 265 266 268 271 270 268 260 253 255 256 244 234
294 273 268 262 255 252 251 249 251 249 249 261 268 270 268 267 269 267 264 265 268 271 271 254 244 242 250 260 262 262 263 263 259 255 250 252 251 243
278 269 270 268 269 273 271 266 256 260 265 267 264 266 271 274 276 274 268 266 268 271 274 279 274 265 253 243 245 260 264 264 263 254 252 253 251 242
253 265 272 275 280 283 283 283 282 277 273 271 271 270 271 273 275 273 272 273 271 271 268 267 268 268 271 273 255 232 264 273 273 264 257 259 262 256
255 270 276 278 279 282 286 286 282 277 267 268 274 274 276 276 276 273 270 273 274 274 272 269 267 270 276 286 291 279 241 257 263 263 266 270 273 262
267 271 276 280 279 274 275 278 278 275 274 269 267 271 276 277 279 279 276 271 268 269 272 277 282 266 268 267 267 266 256 233 251 263 266 261 262 257
285 286 283 280 279 277 274 271 270 267 263 260 262 264 270 273 276 278 281 279 275 274 274 272 268 263 263 264 270 273 271 254 235 231 242 252 266 267
285 287 287 284 283 284 283 281 277 273 269 268 268 266 265 268 272 271 274 278 281 281 280 275 270 264 263 265 270 273 272 266 256 248 244 217 216 228